PTSGM SBBQ-SBRJ

Flight info

Callsign PTSGM
Flight time N/A
Altitude 7000
Route TOKIM
Aircraft E110/L-SDG/C

Departure

Time 2026-04-25 16:22
Airport Major Brigadeiro Doorgal Borges Airport (SBBQ)

Arrival

Time N/A
Airport Santos Dumont Airport (SBRJ)
Time Latitude Longitude Altitude Speed Heading
2026-04-25 16:09 -21.26514 -43.76268 3644 ft 0 kts 343°
2026-04-25 16:15 -21.26514 -43.76269 3644 ft 0 kts 343°
2026-04-25 16:15 -21.26507 -43.76269 3644 ft 2 kts 20°
2026-04-25 16:15 -21.26481 -43.76224 3644 ft 2 kts 70°
2026-04-25 16:16 -21.26473 -43.76201 3644 ft 6 kts 82°
2026-04-25 16:16 -21.26549 -43.76157 3645 ft 14 kts 164°
2026-04-25 16:16 -21.26648 -43.76122 3646 ft 16 kts 152°
2026-04-25 16:16 -21.26742 -43.76088 3649 ft 15 kts 158°
2026-04-25 16:17 -21.26854 -43.76045 3652 ft 17 kts 163°
2026-04-25 16:17 -21.26984 -43.76003 3654 ft 20 kts 163°
2026-04-25 16:17 -21.27132 -43.75957 3657 ft 22 kts 160°
2026-04-25 16:17 -21.27287 -43.75901 3659 ft 25 kts 162°
2026-04-25 16:18 -21.27425 -43.75854 3660 ft 11 kts 167°
2026-04-25 16:18 -21.27453 -43.75853 3660 ft 13 kts 186°
2026-04-25 16:18 -21.27464 -43.75837 3660 ft 0 kts 343°
2026-04-25 16:20 -21.26578 -43.76146 3649 ft 115 kts 337°
2026-04-25 16:21 -21.25811 -43.76431 3819 ft 116 kts 340°
2026-04-25 16:21 -21.25007 -43.76724 3979 ft 127 kts 338°
2026-04-25 16:21 -21.24101 -43.77013 4123 ft 139 kts 341°
2026-04-25 16:21 -21.23146 -43.77310 4214 ft 141 kts 342°
2026-04-25 16:22 -21.22185 -43.77611 4180 ft 148 kts 342°
2026-04-25 16:22 -21.21148 -43.77943 4217 ft 158 kts 341°
2026-04-25 16:22 -21.20080 -43.78285 4311 ft 162 kts 342°
2026-04-25 16:22 -21.18982 -43.78632 4408 ft 165 kts 340°
2026-04-25 16:23 -21.17901 -43.79079 4536 ft 161 kts 322°
2026-04-25 16:23 -21.17413 -43.79784 4613 ft 159 kts 288°
2026-04-25 16:23 -21.17402 -43.79819 4616 ft 159 kts 287°
2026-04-25 16:23 -21.17498 -43.80979 4709 ft 159 kts 243°
2026-04-25 16:24 -21.18341 -43.81724 4848 ft 163 kts 200°
2026-04-25 16:24 -21.18850 -43.81813 4922 ft 163 kts 187°
2026-04-25 16:24 -21.19988 -43.81791 5064 ft 164 kts 181°
2026-04-25 16:24 -21.21129 -43.81741 5208 ft 163 kts 181°
2026-04-25 16:25 -21.22270 -43.81697 5352 ft 163 kts 181°
2026-04-25 16:25 -21.22660 -43.81680 5405 ft 163 kts 181°
2026-04-25 16:25 -21.24549 -43.81592 5679 ft 160 kts 184°
2026-04-25 16:25 -21.25663 -43.81608 5823 ft 160 kts 185°
2026-04-25 16:26 -21.26799 -43.81630 5946 ft 160 kts 185°
2026-04-25 16:26 -21.27922 -43.81652 6074 ft 161 kts 186°
2026-04-25 16:26 -21.29046 -43.81675 6199 ft 161 kts 186°
2026-04-25 16:26 -21.30179 -43.81696 6342 ft 159 kts 186°
2026-04-25 16:27 -21.31271 -43.81718 6470 ft 160 kts 186°
2026-04-25 16:27 -21.32398 -43.81740 6610 ft 159 kts 186°
2026-04-25 16:27 -21.33509 -43.81865 6746 ft 155 kts 198°
2026-04-25 16:27 -21.34544 -43.82224 6877 ft 154 kts 207°
2026-04-25 16:28 -21.35528 -43.82701 7010 ft 153 kts 211°
2026-04-25 16:28 -21.36454 -43.83220 7142 ft 153 kts 213°
2026-04-25 16:28 -21.37077 -43.83592 7231 ft 152 kts 213°
2026-04-25 16:28 -21.38353 -43.84383 7222 ft 159 kts 215°
2026-04-25 16:29 -21.39349 -43.85013 7198 ft 169 kts 214°
2026-04-25 16:29 -21.40390 -43.85677 7220 ft 174 kts 214°
2026-04-25 16:29 -21.41466 -43.86366 7205 ft 180 kts 214°
2026-04-25 16:29 -21.42556 -43.87065 7189 ft 184 kts 214°
2026-04-25 16:30 -21.43308 -43.87548 7185 ft 186 kts 214°
2026-04-25 16:30 -21.44802 -43.88508 7185 ft 188 kts 214°
2026-04-25 16:30 -21.45935 -43.89236 7185 ft 189 kts 213°
2026-04-25 16:30 -21.47074 -43.89968 7184 ft 189 kts 214°
2026-04-25 16:31 -21.48229 -43.90711 7185 ft 190 kts 214°
2026-04-25 16:31 -21.49377 -43.91450 7184 ft 190 kts 214°
2026-04-25 16:31 -21.50532 -43.92193 7186 ft 190 kts 213°
2026-04-25 16:31 -21.51673 -43.92928 7190 ft 191 kts 214°
2026-04-25 16:32 -21.52835 -43.93676 7194 ft 192 kts 214°
2026-04-25 16:32 -21.53998 -43.94426 7195 ft 192 kts 214°
2026-04-25 16:32 -21.55152 -43.95169 7190 ft 193 kts 213°
2026-04-25 16:32 -21.56310 -43.95914 7190 ft 194 kts 213°
2026-04-25 16:33 -21.57087 -43.96415 7187 ft 194 kts 213°
2026-04-25 16:33 -21.58663 -43.97431 7194 ft 195 kts 213°
2026-04-25 16:33 -21.59819 -43.98176 7195 ft 195 kts 213°
2026-04-25 16:33 -21.61001 -43.98938 7194 ft 196 kts 213°
2026-04-25 16:34 -21.62186 -43.99702 7198 ft 196 kts 213°
2026-04-25 16:34 -21.63378 -44.00470 7198 ft 196 kts 213°
2026-04-25 16:34 -21.64553 -44.01229 7193 ft 197 kts 213°
2026-04-25 16:34 -21.65749 -44.02000 7193 ft 197 kts 213°
2026-04-25 16:35 -21.66936 -44.02766 7194 ft 197 kts 213°
2026-04-25 16:35 -21.68075 -44.03501 7195 ft 197 kts 213°
2026-04-25 16:35 -21.69252 -44.04261 7193 ft 197 kts 213°
2026-04-25 16:35 -21.70435 -44.05026 7192 ft 197 kts 213°
2026-04-25 16:36 -21.71630 -44.05797 7193 ft 197 kts 213°
2026-04-25 16:36 -21.72021 -44.06050 7194 ft 197 kts 213°
2026-04-25 16:36 -21.73996 -44.07326 7195 ft 197 kts 213°
2026-04-25 16:36 -21.75192 -44.08099 7195 ft 197 kts 213°
2026-04-25 16:37 -21.76365 -44.08857 7193 ft 198 kts 213°
2026-04-25 16:37 -21.77555 -44.09626 7188 ft 198 kts 213°
2026-04-25 16:37 -21.78750 -44.10399 7182 ft 198 kts 213°
2026-04-25 16:37 -21.79931 -44.11163 7182 ft 198 kts 213°
2026-04-25 16:38 -21.81109 -44.11924 7184 ft 197 kts 213°
2026-04-25 16:38 -21.82300 -44.12695 7182 ft 197 kts 213°
2026-04-25 16:38 -21.83502 -44.13473 7184 ft 197 kts 213°
2026-04-25 16:38 -21.84686 -44.14240 7183 ft 197 kts 213°
2026-04-25 16:39 -21.85872 -44.15007 7183 ft 197 kts 213°
2026-04-25 16:39 -21.87058 -44.15775 7184 ft 197 kts 213°
2026-04-25 16:39 -21.88234 -44.16537 7187 ft 197 kts 213°
2026-04-25 16:39 -21.89424 -44.17307 7190 ft 197 kts 213°
2026-04-25 16:40 -21.90219 -44.17823 7191 ft 197 kts 213°
2026-04-25 16:40 -21.91806 -44.18818 7186 ft 198 kts 204°
2026-04-25 16:40 -21.93161 -44.18860 7176 ft 200 kts 165°
2026-04-25 16:40 -21.94475 -44.18330 7204 ft 199 kts 160°
2026-04-25 16:41 -21.95785 -44.17757 7198 ft 201 kts 159°
2026-04-25 16:41 -21.96210 -44.17569 7194 ft 201 kts 159°
2026-04-25 16:41 -21.99708 -44.16009 7190 ft 202 kts 159°
2026-04-25 16:42 -22.01007 -44.15425 7182 ft 202 kts 159°
2026-04-25 16:42 -22.02321 -44.14834 7182 ft 202 kts 159°
2026-04-25 16:42 -22.03632 -44.14245 7179 ft 203 kts 159°
2026-04-25 16:42 -22.04509 -44.13849 7174 ft 203 kts 159°
2026-04-25 16:43 -22.06247 -44.13065 7170 ft 203 kts 159°
2026-04-25 16:43 -22.07575 -44.12466 7170 ft 203 kts 159°
2026-04-25 16:43 -22.08895 -44.11871 7168 ft 203 kts 159°
2026-04-25 16:43 -22.10211 -44.11278 7164 ft 203 kts 159°
2026-04-25 16:44 -22.11542 -44.10677 7164 ft 203 kts 159°
2026-04-25 16:44 -22.12522 -44.10234 7164 ft 202 kts 159°
2026-04-25 16:44 -22.13747 -44.09681 7159 ft 203 kts 159°
2026-04-25 16:44 -22.15055 -44.09089 7151 ft 203 kts 159°
2026-04-25 16:45 -22.16384 -44.08489 7146 ft 204 kts 159°
2026-04-25 16:45 -22.17695 -44.07896 7150 ft 203 kts 159°
2026-04-25 16:45 -22.18570 -44.07501 7152 ft 203 kts 159°
2026-04-25 16:45 -22.20328 -44.06706 7149 ft 203 kts 159°
2026-04-25 16:46 -22.21639 -44.06113 7146 ft 203 kts 159°
2026-04-25 16:46 -22.22955 -44.05518 7143 ft 203 kts 159°
2026-04-25 16:46 -22.24288 -44.04916 7141 ft 203 kts 159°
2026-04-25 16:46 -22.24731 -44.04715 7142 ft 203 kts 159°
2026-04-25 16:47 -22.26939 -44.03716 7136 ft 203 kts 159°
2026-04-25 16:47 -22.28262 -44.03117 7129 ft 203 kts 159°
2026-04-25 16:47 -22.29571 -44.02524 7121 ft 203 kts 159°
2026-04-25 16:47 -22.30862 -44.01939 7115 ft 203 kts 159°
2026-04-25 16:48 -22.32179 -44.01343 7109 ft 203 kts 159°
2026-04-25 16:48 -22.33462 -44.00761 7099 ft 203 kts 159°
2026-04-25 16:48 -22.34715 -44.00193 7096 ft 203 kts 159°
2026-04-25 16:48 -22.35511 -43.99833 7091 ft 203 kts 159°
2026-04-25 16:49 -22.36736 -43.99277 7088 ft 203 kts 159°
2026-04-25 16:49 -22.38018 -43.98696 7082 ft 203 kts 159°
2026-04-25 16:49 -22.39300 -43.98115 7078 ft 203 kts 159°
2026-04-25 16:49 -22.40613 -43.97520 7073 ft 203 kts 159°
2026-04-25 16:50 -22.41928 -43.96923 7062 ft 203 kts 159°
2026-04-25 16:50 -22.43152 -43.96368 7060 ft 203 kts 159°
2026-04-25 16:50 -22.44464 -43.95772 7065 ft 203 kts 159°
2026-04-25 16:50 -22.45772 -43.95179 7060 ft 203 kts 159°
2026-04-25 16:51 -22.47105 -43.94574 7054 ft 203 kts 159°
2026-04-25 16:51 -22.48420 -43.93977 7045 ft 203 kts 159°
2026-04-25 16:51 -22.49669 -43.93409 7048 ft 203 kts 159°
2026-04-25 16:51 -22.50580 -43.92995 7047 ft 203 kts 159°
2026-04-25 16:52 -22.52319 -43.92204 7040 ft 203 kts 159°
2026-04-25 16:52 -22.53680 -43.91586 7047 ft 203 kts 159°
2026-04-25 16:52 -22.55006 -43.90983 7051 ft 203 kts 159°
2026-04-25 16:52 -22.56312 -43.90389 7044 ft 204 kts 159°
2026-04-25 16:53 -22.58936 -43.89196 7038 ft 204 kts 159°
2026-04-25 16:53 -22.60279 -43.88585 7036 ft 204 kts 159°
2026-04-25 16:53 -22.61592 -43.87987 7033 ft 204 kts 159°
2026-04-25 16:54 -22.62908 -43.87389 7024 ft 204 kts 159°
2026-04-25 16:54 -22.64212 -43.86795 7021 ft 203 kts 159°
2026-04-25 16:54 -22.65523 -43.86198 7013 ft 203 kts 159°
2026-04-25 16:54 -22.66861 -43.85589 7013 ft 203 kts 159°
2026-04-25 16:55 -22.68178 -43.84989 7014 ft 203 kts 159°
2026-04-25 16:55 -22.69485 -43.84393 7005 ft 203 kts 159°
2026-04-25 16:55 -22.70803 -43.83792 6998 ft 203 kts 159°
2026-04-25 16:55 -22.72120 -43.83192 7013 ft 203 kts 159°
2026-04-25 16:56 -22.73379 -43.82618 7008 ft 203 kts 159°
2026-04-25 16:56 -22.74688 -43.82021 7001 ft 204 kts 159°
2026-04-25 16:56 -22.76034 -43.81408 7000 ft 204 kts 159°
2026-04-25 16:56 -22.77353 -43.80805 6962 ft 204 kts 160°
2026-04-25 16:57 -22.78608 -43.80232 6965 ft 202 kts 160°
2026-04-25 16:57 -22.79476 -43.79836 6978 ft 201 kts 160°
2026-04-25 16:57 -22.81210 -43.79045 6999 ft 201 kts 159°
2026-04-25 16:57 -22.82525 -43.78445 6980 ft 203 kts 159°
2026-04-25 16:58 -22.83835 -43.77847 6972 ft 203 kts 159°
2026-04-25 16:58 -22.85162 -43.77241 6970 ft 203 kts 159°
2026-04-25 16:58 -22.86413 -43.76669 6967 ft 202 kts 159°
2026-04-25 16:58 -22.87698 -43.76082 6974 ft 202 kts 159°
2026-04-25 16:59 -22.89025 -43.75475 6970 ft 203 kts 159°
2026-04-25 16:59 -22.90353 -43.74868 6966 ft 203 kts 159°
2026-04-25 16:59 -22.91661 -43.74269 6963 ft 203 kts 159°
2026-04-25 16:59 -22.92960 -43.73676 6965 ft 203 kts 160°
2026-04-25 17:00 -22.94286 -43.73062 6959 ft 204 kts 156°
2026-04-25 17:00 -22.95302 -43.71988 6941 ft 206 kts 123°
2026-04-25 17:00 -22.96006 -43.70619 6969 ft 205 kts 120°
2026-04-25 17:00 -22.96696 -43.69230 6968 ft 206 kts 119°
2026-04-25 17:01 -22.97387 -43.67820 6963 ft 207 kts 119°
2026-04-25 17:01 -22.98049 -43.66467 6963 ft 207 kts 119°
2026-04-25 17:01 -22.98726 -43.65087 6959 ft 207 kts 119°
2026-04-25 17:01 -22.99413 -43.63683 6955 ft 207 kts 118°
2026-04-25 17:02 -22.99626 -43.62168 6938 ft 206 kts 78°
2026-04-25 17:02 -22.99120 -43.60725 6964 ft 204 kts 64°
2026-04-25 17:02 -22.98507 -43.59306 6960 ft 205 kts 64°
2026-04-25 17:02 -22.97891 -43.57897 6954 ft 205 kts 64°
2026-04-25 17:03 -22.97279 -43.56501 6955 ft 206 kts 64°
2026-04-25 17:03 -22.96655 -43.55082 6956 ft 206 kts 64°
2026-04-25 17:03 -22.96030 -43.53665 6958 ft 206 kts 64°
2026-04-25 17:03 -22.95412 -43.52257 6959 ft 206 kts 64°
2026-04-25 17:04 -22.94810 -43.50812 6950 ft 207 kts 73°
2026-04-25 17:04 -22.94401 -43.49348 6852 ft 211 kts 62°
2026-04-25 17:04 -22.93661 -43.47930 6772 ft 212 kts 61°
2026-04-25 17:04 -22.92987 -43.46493 6692 ft 212 kts 63°
2026-04-25 17:05 -22.92348 -43.45039 6611 ft 212 kts 64°
2026-04-25 17:05 -22.91099 -43.42118 6404 ft 213 kts 64°
2026-04-25 17:05 -22.90475 -43.40649 6269 ft 214 kts 64°
2026-04-25 17:06 -22.89872 -43.39229 6139 ft 215 kts 64°
2026-04-25 17:06 -22.89208 -43.37663 5998 ft 215 kts 64°
2026-04-25 17:06 -22.88613 -43.36259 5867 ft 211 kts 64°
2026-04-25 17:06 -22.88098 -43.34785 5684 ft 206 kts 72°
2026-04-25 17:07 -22.87729 -43.33351 5449 ft 206 kts 73°
2026-04-25 17:07 -22.87347 -43.31855 5207 ft 205 kts 73°
2026-04-25 17:07 -22.86962 -43.30352 4965 ft 205 kts 73°
2026-04-25 17:07 -22.86744 -43.28987 4744 ft 206 kts 86°
2026-04-25 17:08 -22.86742 -43.27446 4500 ft 206 kts 89°
2026-04-25 17:08 -22.86753 -43.25832 4144 ft 212 kts 89°
2026-04-25 17:08 -22.86764 -43.24224 3747 ft 208 kts 89°
2026-04-25 17:08 -22.86771 -43.22646 3348 ft 206 kts 89°
2026-04-25 17:09 -22.86778 -43.21130 2961 ft 204 kts 89°
2026-04-25 17:09 -22.86813 -43.19572 2561 ft 203 kts 91°
2026-04-25 17:09 -22.86849 -43.18081 2183 ft 202 kts 91°
2026-04-25 17:09 -22.86884 -43.16572 1803 ft 201 kts 91°
2026-04-25 17:10 -22.86917 -43.15136 1443 ft 200 kts 91°
2026-04-25 17:10 -22.86734 -43.13697 1333 ft 180 kts 62°
2026-04-25 17:10 -22.85990 -43.12632 1491 ft 175 kts 48°
2026-04-25 17:10 -22.85181 -43.11630 1526 ft 181 kts 45°
2026-04-25 17:11 -22.84035 -43.11039 1478 ft 181 kts
2026-04-25 17:11 -22.82827 -43.11277 1478 ft 172 kts 339°
2026-04-25 17:11 -22.81974 -43.12109 1473 ft 160 kts 297°
2026-04-25 17:11 -22.81652 -43.13129 1515 ft 137 kts 288°
2026-04-25 17:12 -22.81652 -43.14111 1524 ft 131 kts 249°
2026-04-25 17:12 -22.82203 -43.14914 1693 ft 134 kts 223°
2026-04-25 17:12 -22.83027 -43.15512 1675 ft 147 kts 211°
2026-04-25 17:12 -22.84028 -43.15937 1599 ft 152 kts 200°
2026-04-25 17:13 -22.85000 -43.16245 1416 ft 138 kts 192°
2026-04-25 17:13 -22.85629 -43.16340 1251 ft 138 kts 188°
2026-04-25 17:13 -22.86893 -43.16423 873 ft 143 kts 182°
2026-04-25 17:13 -22.87890 -43.16449 586 ft 140 kts 182°
2026-04-25 17:14 -22.88819 -43.16445 386 ft 122 kts 177°
2026-04-25 17:14 -22.89567 -43.16381 136 ft 95 kts 177°
2026-04-25 17:14 -22.90193 -43.16327 96 ft 87 kts 165°
2026-04-25 17:14 -22.90809 -43.16287 58 ft 95 kts 183°
2026-04-25 17:15 -22.91395 -43.16251 22 ft 75 kts 199°